TimeHST,TemperatureF,Dew PointF,Humidity,Sea Level PressureIn,VisibilityMPH,Wind Direction,Wind SpeedMPH,Gust SpeedMPH,PrecipitationIn,Events,Conditions,WindDirDegrees,DateUTC
12:56 AM,52.3,49.1,89,30.37,7.0,Calm,Calm,-,N/A,,Clear,0,2013-10-12 10:56:00
1:56 AM,50.0,47.8,92,30.36,8.0,ESE,2.3,-,N/A,,Clear,110,2013-10-12 11:56:00
2:56 AM,49.5,46.0,88,30.35,11.0,ESE,3.5,-,N/A,,Clear,110,2013-10-12 12:56:00
3:56 AM,49.6,45.3,85,30.34,12.0,ESE,5.8,-,N/A,,Clear,120,2013-10-12 13:56:00
4:56 AM,49.1,44.8,85,30.35,12.0,ESE,3.5,-,N/A,,Clear,110,2013-10-12 14:56:00
5:56 AM,49.3,44.4,83,30.35,12.0,ESE,4.6,-,N/A,,Clear,120,2013-10-12 15:56:00
6:56 AM,50.7,46.8,86,30.36,11.0,ESE,4.6,-,N/A,,Clear,120,2013-10-12 16:56:00
7:56 AM,60.1,51.4,73,30.37,10.0,ESE,3.5,-,N/A,,Clear,120,2013-10-12 17:56:00
8:56 AM,63.5,50.4,62,30.38,12.0,SSW,1.2,-,N/A,,Partly Cloudy,210,2013-10-12 18:56:00
9:56 AM,66.0,52.9,63,30.38,12.0,WSW,5.8,13.8,N/A,,Clear,250,2013-10-12 19:56:00
10:56 AM,67.8,54.1,62,30.37,12.0,West,13.8,21.9,N/A,,Partly Cloudy,260,2013-10-12 20:56:00
11:56 AM,69.4,56.5,63,30.34,11.0,WSW,13.8,21.9,N/A,,Partly Cloudy,250,2013-10-12 21:56:00
12:56 PM,69.3,56.8,65,30.31,10.0,WSW,13.8,26.5,N/A,,Partly Cloudy,250,2013-10-12 22:56:00
1:56 PM,68.9,56.5,65,30.29,9.0,West,18.4,27.6,N/A,,Clear,260,2013-10-12 23:56:00
2:57 PM,66.6,56.5,70,30.29,9.0,WSW,13.8,23.0,N/A,,Partly Cloudy,250,2013-10-13 00:57:00
3:56 PM,63.9,57.2,79,30.31,7.0,WSW,11.5,17.3,N/A,,Partly Cloudy,250,2013-10-13 01:56:00
4:56 PM,62.2,56.5,81,30.32,6.0,WSW,5.8,-,N/A,,Partly Cloudy,250,2013-10-13 02:56:00
5:31 PM,60.8,57.2,88,30.34,5.0,WSW,5.8,-,N/A,,Mostly Cloudy,250,2013-10-13 03:31:00
5:56 PM,59.4,56.7,91,30.35,5.0,West,4.6,-,N/A,,Mostly Cloudy,260,2013-10-13 03:56:00
6:11 PM,59.0,57.2,94,30.35,5.0,WSW,2.3,-,N/A,,Mostly Cloudy,240,2013-10-13 04:11:00
6:41 PM,59.0,55.4,88,30.35,5.0,West,2.3,-,N/A,,Mostly Cloudy,270,2013-10-13 04:41:00
6:51 PM,59.0,55.4,88,30.35,5.0,West,2.3,-,N/A,,Scattered Clouds,260,2013-10-13 04:51:00
6:56 PM,58.6,55.8,90,30.36,5.0,WSW,1.2,-,N/A,,Scattered Clouds,250,2013-10-13 04:56:00
7:56 PM,58.1,55.6,91,30.36,6.0,Calm,Calm,-,N/A,,Partly Cloudy,0,2013-10-13 05:56:00
8:56 PM,57.4,52.7,84,30.38,9.0,ESE,4.6,-,N/A,,Partly Cloudy,120,2013-10-13 06:56:00
9:56 PM,54.7,49.6,83,30.38,9.0,ESE,3.5,-,N/A,,Clear,120,2013-10-13 07:56:00
10:56 PM,54.5,47.5,77,30.37,12.0,ESE,4.6,-,N/A,,Partly Cloudy,120,2013-10-13 08:56:00
11:56 PM,52.3,47.8,85,30.36,9.0,ESE,4.6,-,N/A,,Partly Cloudy,120,2013-10-13 09:56:00